Regional Weather Roundup
Issued by NWS

Home | Current Version | Previous Version | Graphics & Text | Print | Product List | Glossary On
Versions: 1 2 3 4 5 6 7 8 9 10 11 12 13 14 15 16 17 18 19 20 21 22 23 24 25 26 27 28 29 30 31 32 33 34 35 36 37 38 39 40 41 42 43 44 45 46 47 48 49 50
000
ASUS43 KTOP 232008
RWRKS

WEATHER ROUNDUP FOR KANSAS
NATIONAL WEATHER SERVICE GOODLAND KS
300 PM CDT FRI JUN 23 2017

NOTE:  "FAIR" INDICATES FEW OR NO CLOUDS BELOW 12,000 FEET WITH NO
SIGNIFICANT WEATHER AND/OR OBSTRUCTIONS TO VISIBILITY.

KSZ001>006-013>018-027>032-041>047-232100-
NORTHWEST KANSAS

CITY           SKY/WX    TMP DP  RH WIND       PRES   REMARKS
GOODLAND       CLOUDY    66  46  48 NW7       30.20F
HAYS           CLOUDY    72  48  42 N9G16     30.12F
HILL CITY      MOSUNNY   79  46  31 NW12G20   30.12F
RUSSELL        CLOUDY    72  45  37 N10       30.09F
$$

KSZ061>065-074>080-084>089-232100-
SOUTHWEST KANSAS

CITY           SKY/WX    TMP DP  RH WIND       PRES   REMARKS
DODGE CITY     CLOUDY    73  48  41 NE22      30.13F
ELKHART          N/A     69  45  42 N12         N/A
GARDEN CITY    CLOUDY    71  45  39 NE15      30.16F
GREAT BEND     CLOUDY    73  49  42 N18       30.11R
LIBERAL        SUNNY     74  51  44 N21G28    30.14F
PRATT          CLOUDY    69  47  44 N15G23    30.09R
$$

KSZ066>073-081>083-090>101-232100-
SOUTHEAST KANSAS

CITY           SKY/WX    TMP DP  RH WIND       PRES   REMARKS
CHANUTE        SUNNY     86  53  32 N18G26    29.90S
COFFEYVILLE    SUNNY     88  58  36 NE15      29.86F
HUTCHINSON     LGT RAIN  72  50  45 N8        30.05R
MEDICINE LODGE   N/A     78  51  38 N23G31    30.03R
NEWTON         CLOUDY    77  51  40 N15G24    30.04R
PARSONS        SUNNY     87  54  32 N12G21    29.89F
WICHITA INTL   CLOUDY    77  52  41 N17G28    30.01R
WICHITA JABRA  CLOUDY    81  54  39 N21G29    30.01R
WICHITA MCCONL CLOUDY    79  53  41 N21G26    30.00R
WINFIELD       CLOUDY    82  53  36 N17G25    29.98R
$$

KSZ007>012-019>026-033>040-048>060-102>105-232100-
NORTHEAST KANSAS

CITY           SKY/WX    TMP DP  RH WIND       PRES   REMARKS
CONCORDIA      MOSUNNY   78  46  32 N15G22    30.05R
EMPORIA        MOSUNNY   80  55  42 N15G22    29.99R
LAWRENCE       MOSUNNY   79  54  41 N20G29    29.96R
MANHATTAN      MOSUNNY   80  47  31 N12G18    30.01R
MARYSVILLE     SUNNY     75  52  43 N20       30.02R
OLATHE IND     SUNNY     80  59  48 N18       29.96R
OLATHE EXE     MOSUNNY   80  57  45 NW17G29   29.94S
SALINA         CLOUDY    81  45  28 N23G29    30.03F
TOPEKA BILLARD SUNNY     79  55  43 N16G28    29.98R
TOPEKA FORBES  SUNNY     80  51  36 N16G26    29.98R
$$




USA.gov is the U.S. government's official web portal to all federal, state and local government web resources and services.